Voltar ao catálogo

COSMOS 1275 DEB

AtivoPO
NORAD 12675·DEBRIS·🇷🇺 Russia

Lançado Jun 4, 1981 de Plesetsk Cosmodrome

Loading…

Próximas Passagens (próximas 24 horas)

TLE

AtualizadoSource: Space-Track

Época: Sep 14, 2026, 06:55 UTC

1 12675U 81053AF  26257.28823885  .00000484  00000-0  43625-3 0  9993
2 12675  82.9382 195.4984 0066479  34.2428 117.2676 13.81066371260846

Acompanhe COSMOS 1275 DEB em tempo real com AllMySat

Download on the App Store